Weather History for CXDK - May, 2013

Change the Weather History Date:

Tuesday, May 28, 2013

  Actual Average Record
Temperature  
Mean Temperature 60 °F -  
Max Temperature 69 °F - - ()
Min Temperature 50 °F - - ()
Degree Days  
Heating Degree Days 6    
Growing Degree Days 10 (Base 50)    
Moisture  
Dew Point 46 °F    
Average Humidity 66    
Maximum Humidity 95    
Minimum Humidity 19    
Precipitation  
Precipitation 0.04 in - - ()
Sea Level Pressure  
Sea Level Pressure 29.85 in    
Wind  
Wind Speed 19 mph ()    
Max Wind Speed 39 mph    
Max Gust Speed -    
T = Trace of Precipitation, MM = Missing Value Source: Averaged Metar Reports

Daily Weather History Graph

Daily Weather History Graph

Search for Another Location

Airport or City:

Trip Planner

Search our weather history database for the weather conditions in past years. The results will help you decide how hot, cold, wet, or windy it might be!

Date:

Astronomy

May. 28, 2013 Rise Set
Actual Time 5:00 AM MDT 11:31 PM MDT
Civil Twilight 3:26 AM MDT 1:08 AM MDT
Nautical Twilight Sun does not set Sun does not set
Astronomical Twilight Sun does not set Sun does not set
Moon 1:40 AM MDT 9:32 AM MDT
Length of Visible Light 21h 42m
Length of Day
18h 31m
Waning Gibbous, 82% of the Moon is Illuminated
May 28
Waning Gibbous
May 31
Last Quarter
Jun 8
New
Jun 16
First Quarter
Jun 23
Full

Hourly Weather History & Observations

Time (MDT) Temp. Dew Point Humidity Pressure Visibility Wind Dir Wind Speed Gust Speed Precip Events Conditions
12:00 AM 57 °F 51 °F 73% 29.81 in - Calm Calm - -  
12:00 AM 57.0 °F 50.7 °F 79% 29.81 in - North 26.5 mph - N/A   Unknown
1:00 AM 55.0 °F 50.4 °F 84% 29.81 in - North 34.5 mph - N/A   Unknown
2:00 AM 54.3 °F 50.5 °F 87% 29.83 in - North 4.6 mph - N/A   Unknown
3:00 AM 53.6 °F 49.5 °F 86% 29.84 in - North 11.5 mph - N/A   Unknown
4:00 AM 51.8 °F 48.6 °F 89% 29.84 in - North 21.9 mph - N/A   Unknown
5:00 AM 52.0 °F 49.8 °F 92% 29.85 in - North 39.1 mph - N/A   Unknown
6:00 AM 52 °F 50 °F 91% 29.86 in - Calm Calm - -  
6:00 AM 51.6 °F 50.2 °F 95% 29.86 in - North 35.7 mph - N/A   Unknown
7:00 AM 51.6 °F 49.6 °F 93% 29.86 in - North 27.6 mph - N/A   Unknown
8:00 AM 52.7 °F 50.7 °F 93% 29.87 in - North 27.6 mph - N/A   Unknown
9:00 AM 54.7 °F 49.1 °F 81% 29.88 in - North 9.2 mph - N/A   Unknown
10:00 AM 54.0 °F 51.3 °F 91% 29.89 in - North 10.4 mph - 0.04 in   Unknown
11:00 AM 56.3 °F 51.6 °F 84% 29.89 in - North 16.1 mph - N/A   Unknown
12:00 PM 58 °F 51 °F 70% 29.89 in - Calm Calm - -  
12:00 PM 57.9 °F 50.9 °F 77% 29.89 in - North 24.2 mph - N/A   Unknown
1:00 PM 60.3 °F 48.4 °F 65% 29.88 in - North 25.3 mph - N/A   Unknown
2:00 PM 62.8 °F 44.6 °F 51% 29.88 in - North 31.1 mph - N/A   Unknown
3:00 PM 65.5 °F 40.8 °F 41% 29.87 in - North 26.5 mph - N/A   Unknown
4:00 PM 65.3 °F 40.1 °F 40% 29.86 in - North 13.8 mph - N/A   Unknown
5:00 PM 65.7 °F 39.9 °F 39% 29.85 in - North 17.3 mph - N/A   Unknown
6:00 PM 69 °F 36 °F 19% 29.83 in - Calm Calm - -  
6:00 PM 68.7 °F 36.5 °F 31% 29.83 in - North 15.0 mph - N/A   Unknown
7:00 PM 69.4 °F 36.5 °F 30% 29.81 in - North 15.0 mph - N/A   Unknown
8:00 PM 68.4 °F 37.4 °F 32% 29.81 in - North 9.2 mph - N/A   Unknown
9:00 PM 65.7 °F 38.7 °F 37% 29.81 in - North 11.5 mph - N/A   Unknown
10:00 PM 63.0 °F 42.3 °F 47% 29.82 in - North 15.0 mph - N/A   Unknown
11:00 PM 61.0 °F 42.1 °F 50% 29.83 in - North 8.1 mph - N/A   Unknown